Weather in Borne Sulinowo

Poland     53°34′24″N   16°31′31″E
temp.,
°C
wind,
m/s
gust,
m/s
humid.,
%
clouds,
%
prec.,
mm/h
press.,
hPa
HPBL,
m
20 april, tue
tue2023:00+8ne26615 0.0 1018119
02:00+7ne22631 0.0 101729
05:00+5ne22705 0.0 101719
08:00+9ne12595 0.0 1016169
11:00+16ene114516 0.0 1015943
14:00+18nw22305 0.0 10132507
17:00+16n433769 0.0 10122047
20:00+11nne26665 0.1 1013152
21 april, wed
wed2123:00+9n22756 0.0 101336
02:00+7nnw228112 0.0 101325
05:00+5nnw25865 0.0 101298
08:00+9nnw24623 0.0 1012253
11:00+14wnw33395 0.0 10111392
14:00+16wnw453690 0.0 10102464
17:00+13w464779 0.1 10091662
20:00+6nw6988100 0.9 1011841
22 april, thu
thu2223:00+5w497519 0.3 10111021
02:00+3w511825 0.3 1011800
05:00+1wsw51185100 0.0 1011822
08:00+3wsw51079100 0.0 1011973
11:00+3wsw61088100 0.1 1011859
14:00+5w5107589 0.9 10121329
17:00+7wnw61345100 0.4 10132198
20:00+4wnw6145494 0.5 10131723
23 april, fri
fri2323:00+3wnw5126799 0.1 10141243
02:00+3wnw5119399 0.4 1014811
05:00+3nw5108889 0.2 1016971
08:00+4nw597710 0.4 10181144
11:00+8nw711406 0.2 10192255
14:00+9nw6122769 0.2 10212658
17:00+8nw511325 0.0 10222027
20:00+5nnw1142100 0.0 102214
24 april, sat
sat2423:00+5sse2346100 0.0 102164
02:00+3s257190 0.0 1020119
05:00+2w269132 0.0 1020146
08:00+5w488693 0.0 1020518
11:00+7w477190 0.2 10201018
14:00+9nw5747100 0.6 10201856
17:00+8nnw574216 0.0 10211915
20:00+4nw36440 0.0 1023173